{"data":{"norad_id":67263,"epoch":"2026-05-25T04:32:27.902112Z","epoch_age_seconds":54582,"freshness":"FRESH","line1":"1 67263U 25313R   26145.18921183  .00008327  00000+0  35630-3 0  9998","line2":"2 67263  97.3956 220.2611 0016205  86.6467 273.6623 15.22946993 22452","mean_motion":15.22946993,"eccentricity":0.0016205,"inclination_deg":97.3956,"raan_deg":220.2611,"arg_perigee_deg":86.6467,"mean_anomaly_deg":273.6623,"bstar":0.0003563,"rev_number":2245,"period_min":94.553520681859,"perigee_km":485.8160530891,"apogee_km":508.09823320704,"semimajor_km":6875.0941431481,"source":"CELESTRAK","updated_at":"2026-05-25T13:38:06.847938Z"}}